Tracking 18942 objects as of 16-Jan-2018
HD Live streaming from Space Station
objects crossing your sky now

COSMOS 1997

Track COSMOS 1997 now!
10-day predictions
COSMOS 1997 is classified as:


NORAD ID: 19788
Int'l Code: 1989-009D
Perigee: 1,406.7 km
Apogee: 1,423.6 km
Inclination: 82.6 °
Period: 114.0 minutes
Semi major axis: 7786 km
RCS: 1.1265 m2 (large)
Launch date: February 10, 1989
Source: Commonwealth of Independent States (former USSR) (CIS)
Launch site: PLESETSK MISSILE AND SPACE COMPLEX (PKMTR)
aabbcc
Your satellite tracking list
Your tracking list is empty




NASA's NSSDC Master Catalog

Two Line Element Set (TLE):
1 19788U 89009D   18015.87187973 -.00000010 +00000-0 -11290-3 0  9993
2 19788 082.6203 156.3625 0010866 131.2775 037.0804 12.63620723334218
Source of the keplerian elements: AFSPC